Location: Binningen
(47.7924°N, 8.7261°E)
Time: 23:49:51
(UTC+00:00)

Terra - Pass Details

Date: 30 September 2021
Orbit: 701 x 703 km, 98.2° (Epoch: 18 October)

Event Time Altitude Azimuth Distance (km) Brightness Sun altitude
Exits shadow 21:48:55 12° 334° (NNW) 2,023 4.8 -41.7°
Drops below altitude 10° 21:49:20 10° 336° (NNW) 2,180 5.0 -41.7°
Sets 21:51:41 0° 342° (NNW) 3,103 6.0 -41.9°
